User: anonymous   Login
Location: Unspecified
(0.0000°N, 0.0000°E)
Time: 21:25:50
(UTC+00:00)
Language:

ESSA 5 - Orbit

View from above orbital plane
View from above orbital plane
View from above satellite
View from above satellite

Ground track
Ground track

The orbit data is extracted from the following two-line orbital elements,

1  2757U 67036A   18264.78497618 -.00000052 +00000-0 -23873-4 0  9990
2  2757 101.8531 329.3690 0043259 068.4538 039.4034 12.68499015381168
Epoch (UTC): 21 September 2018 18:50:21
Eccentricity: 0.0043259
inclination: 101.8531°
perigee height: 1354 km
apogee height: 1421 km
right ascension of ascending node: 329.3690°
argument of perigee: 68.4538°
revolutions per day: 12.68499015
mean anomaly at epoch: 39.4034°
orbit number at epoch: 38116

The dashed part of the orbit path shows where the satellite is in the earth's shadow,  

DLR